Location: Miles
(41.4492°N, 81.6087°W)
Time: 06:58:39
(UTC+00:00)

Vanguard 1 Rocket - Pass Details

Date: 16 September 2024
Orbit: 650 x 4218 km, 34.3° (Epoch: 05 October)

Event Time Altitude Azimuth Distance (km) Brightness Sun altitude
Rises 16:21:52 0° 285° (WNW) 8,172 12.0 48.6°
Reaches altitude 10° 16:28:55 10° 274° (W) 7,359 11.9 49.1°
Maximum altitude 16:47:11 26° 230° (SW) 5,919 12.1 50.1°
Drops below altitude 10° 17:02:54 10° 183° (S) 6,206 12.5 50.6°
Sets 17:08:18 0° 170° (S) 6,716 12.5 50.7°
